FW7711 Weather Reports


time (UTC)temp
C
wind
direction
speed
KPH
gust
KPH
rain 1hr
cm
rain 24hr
cm
rain mn
cm
humidity
%
barometer
mb
20260506121607 0 0.0 0.0 0.00 0.00 0.00 83 1016.3
20260506114600 -1 0.0 0.0 0.00 0.00 0.00 85 1015.8
20260506113058 -1 0.0 0.0 0.00 0.00 0.00 84 1015.7
20260506111613 -1 0.0 0.0 0.00 0.00 0.00 83 1015.6
20260506110058 -1 0.0 0.0 0.00 0.00 0.00 82 1015.9
20260506104605 -1 0.0 0.0 0.00 0.00 0.00 81 1015.9
20260506103106 -1 0.0 0.0 0.00 0.00 0.00 80 1015.8
20260506101557 -1 0.0 0.0 0.00 0.00 0.00 79 1015.6
20260506100105 -1 0.0 0.0 0.00 0.00 0.00 78 1015.3
20260506094559 -1 0.0 0.0 0.00 0.00 0.00 78 1015.4
20260506093101 -1 0.0 0.0 0.00 0.00 0.00 77 1015.3
20260506091558 -1 0.0 0.0 0.00 0.00 0.00 76 1015.4
20260506090058 0 0.0 0.0 0.00 0.00 0.00 74 1015.5
20260506084605 0 0.0 0.0 0.00 0.00 0.00 73 1015.2
20260506083118 0 0.0 0.0 0.00 0.00 0.00 72 1015.0
20260506081558 0 0.0 0.0 0.00 0.00 0.00 71 1015.1
20260506073059 1 0.0 0.0 0.00 0.00 0.00 68 1014.7
20260506071559 1 0.0 0.0 0.00 0.00 0.00 66 1014.6
20260506070126 1 0.0 0.0 0.00 0.00 0.00 65 1014.7
20260506061600 2 0.0 0.0 0.00 0.00 0.00 63 1014.6
20260506050109 3 0.0 0.0 0.00 0.00 0.00 60 1014.2
20260506044558 3 0.0 0.0 0.00 0.00 0.00 60 1014.1
20260506043104 4 0.0 0.0 0.00 0.00 0.00 58 1014.0
20260506041626 4 0.0 0.0 0.00 0.00 0.00 57 1014.0
20260506040106 5 0.0 0.0 0.00 0.00 0.00 56 1014.0
20260506034601 5 0.0 0.0 0.00 0.00 0.00 56 1014.0
20260506033059 5 0.0 0.0 0.00 0.00 0.00 54 1013.8
20260506031601 5 0.0 0.0 0.00 0.00 0.00 55 1013.7
20260506024606 6 0.0 0.0 0.00 0.00 0.00 52 1013.2
20260506023057 6 0.0 0.0 0.00 0.00 0.00 52 1012.9
20260506021558 6 0.0 0.0 0.00 0.00 0.00 51 1012.8
20260506020111 7 0.0 0.0 0.00 0.00 0.00 49 1012.4
20260506014612 7 0.0 0.0 0.00 0.00 0.00 48 1012.1
20260506013057 7 0.0 0.0 0.00 0.00 0.00 46 1012.1
20260506011623 8 0.0 0.0 0.00 0.00 0.00 45 1012.0
20260506010100 8 0.0 0.0 0.00 0.00 0.00 45 1011.8
20260506004605 8 0.0 0.0 0.00 0.00 0.00 43 1011.6
20260506003058 9 0.0 0.0 0.00 0.00 0.00 44 1011.5
20260506001605 9 0.0 0.0 0.00 0.00 0.00 43 1011.3
20260506000122 10 0.0 0.0 0.00 0.00 0.00 43 1011.3
20260505234604 10 0.0 0.0 0.00 0.00 0.00 40 1011.2
20260505233103 10 0.0 0.0 0.00 0.00 0.00 41 1011.1
20260505231614 11 0.0 0.0 0.00 0.00 0.00 40 1011.1
20260505230110 10 0.0 0.0 0.00 0.00 0.00 42 1011.1
20260505224601 10 0.0 0.0 0.00 0.00 0.00 43 1011.1
20260505223103 10 0.0 0.0 0.00 0.00 0.00 42 1011.1
20260505221604 10 0.0 0.0 0.00 0.00 0.00 42 1011.1
20260505220100 10 0.0 0.0 0.00 0.00 0.00 43 1011.1
20260505214557 10 0.0 0.0 0.00 0.00 0.00 41 1011.2
20260505213059 10 0.0 0.0 0.00 0.00 0.00 41 1011.3
20260505211558 10 0.0 0.0 0.00 0.00 0.00 42 1011.3
20260505210057 10 0.0 0.0 0.00 0.00 0.00 42 1011.2
20260505204602 10 0.0 0.0 0.00 0.00 0.00 42 1011.4
20260505203103 10 0.0 0.0 0.00 0.00 0.00 44 1011.5
20260505201557 10 0.0 0.0 0.00 0.00 0.00 43 1011.5
20260505200100 10 0.0 0.0 0.00 0.00 0.00 45 1011.5
20260505194618 11 0.0 0.0 0.00 0.00 0.00 41 1011.4
20260505193106 11 0.0 0.0 0.00 0.00 0.00 41 1011.4
20260505191609 11 0.0 0.0 0.00 0.00 0.00 45 1011.4
20260505190059 11 0.0 0.0 0.00 0.00 0.00 44 1011.4
20260505184558 11 0.0 0.0 0.00 0.00 0.00 42 1011.6
20260505183057 11 0.0 0.0 0.00 0.00 0.00 43 1011.5
20260505181558 11 0.0 0.0 0.00 0.00 0.00 39 1011.6
20260505180105 10 0.0 0.0 0.00 0.00 0.00 43 1011.6
20260505174559 10 0.0 0.0 0.00 0.00 0.00 41 1011.6
20260505173114 10 0.0 0.0 0.00 0.00 0.00 45 1011.5
20260505171625 10 0.0 0.0 0.00 0.00 0.00 43 1011.7
20260505170059 9 0.0 0.0 0.00 0.00 0.00 43 1011.7
20260505164606 10 0.0 0.0 0.00 0.00 0.00 42 1011.7
20260505163057 10 0.0 0.0 0.00 0.00 0.00 42 1011.6
20260505161605 9 0.0 0.0 0.00 0.00 0.00 45 1011.8
20260505160106 9 0.0 0.0 0.00 0.00 0.00 45 1011.7
20260505153057 10 0.0 0.0 0.00 0.00 0.00 44 1011.6
20260505151601 9 0.0 0.0 0.00 0.00 0.00 45 1011.6
20260505150116 8 0.0 0.0 0.00 0.00 0.00 50 1011.5
20260505130104 5 0.0 0.0 0.00 0.00 0.00 54 1010.9
20260505124600 4 0.0 0.0 0.00 0.00 0.00 56 1010.7
20260505123104 3 0.0 0.0 0.00 0.00 0.00 60 1010.4